Regional Weather Roundup
Issued by NWS

Home | Current Version | Previous Version | Graphics & Text | Print | Product List | Glossary On
Versions: 1 2 3 4 5 6 7 8 9 10 11 12 13 14 15 16 17 18 19 20 21 22 23 24 25 26 27 28 29 30 31 32 33 34 35 36 37 38 39 40 41 42 43 44 45 46 47 48 49 50
000
ASUS43 KFSD 162002
RWRSD

WEATHER ROUNDUP FOR SOUTH DAKOTA
NATIONAL WEATHER SERVICE SIOUX FALLS SD
300 PM CDT TUE SEP 16 2014

NOTE: "FAIR" INDICATES FEW OR NO CLOUDS BELOW 12,000 FEET WITH NO
SIGNIFICANT WEATHER AND/OR OBSTRUCTIONS TO VISIBILITY.


SDZ001>005-009-010-012>017-162100-
NORTHWEST AND NORTH CENTRAL SOUTH DAKOTA

CITY           SKY/WX    TMP DP  RH WIND       PRES   REMARKS
FAITH            N/A     76  49  38 VRB6      29.96F
MOBRIDGE       SUNNY     72  51  47 CALM      29.93F
$$

SDZ012>016-024>037-041>051-057-063-072>074-162100-
SOUTHWEST AND SOUTH CENTRAL SOUTH DAKOTA

CITY           SKY/WX    TMP DP  RH WIND       PRES   REMARKS
RAPID CTY ARPT SUNNY     78  44  29 MISG      29.99F
PIERRE         SUNNY     74  52  46 CALM      29.93F
CUSTER         MOSUNNY   78  30  17 W13       30.11F
ELLSWORTH AFB  SUNNY     79  45  29 VRB2      29.99F
PHILIP         SUNNY     79  52  38 NE3       29.95F
PINE RIDGE     SUNNY     79  49  34 N5        30.01F
WINNER         FAIR      76  54  46 W10G17    29.95F
$$

SDZ004>011-016>023-039-040-162100-
NORTHEAST SOUTH DAKOTA

CITY           SKY/WX    TMP DP  RH WIND       PRES   REMARKS
ABERDEEN       SUNNY     69  50  50 S9        29.97F
WATERTOWN      SUNNY     68  48  48 S15       30.01F
SISSETON         N/A     70  46  42 S9        29.98F
$$

SDZ017-020-022-023-036>040-048>070-162100-
SOUTHEAST SOUTH DAKOTA

CITY           SKY/WX    TMP DP  RH WIND       PRES   REMARKS
SIOUX FALLS    PTSUNNY   66  48  52 S14       30.04F
HURON          SUNNY     72  51  47 S12G17    29.97F
CHAMBERLAIN    SUNNY     73  56  54 S10G17    29.95F
MITCHELL       SUNNY     72  53  51 S15       29.98F
YANKTON        SUNNY     70  52  52 S15       30.03F
$$

ABBREVIATIONS USED IN REMARKS
   TC - TEMPERATURE IN CELSIUS
  WCI - WIND CHILL INDEX
   HX - HEAT INDEX
  VSB - VISIBILITY




USA.gov is the U.S. government's official web portal to all federal, state and local government web resources and services.